Wind_Speed
7 7 6 7 7 7 8 8 9 9 9 8 7 7 7 8 7 6 6 6 6 6 6 6 7 8 8 8 8 8 8 9 9 9 9 9 10 10 11 11 11 11 11
7 7 7 7 7 8 8 9 9 9 9 8 8 8 9 8 8 8 7 7 7 7 7 7 7 7 8 8 8 8 9 9 9 9 9 10 10 11 11 11 11 11 11
7 8 8 8 8 8 9 9 8 8 9 8 8 9 9 9 9 8 8 7 7 8 8 8 8 7 8 8 8 9 9 9 9 10 10 10 11 11 11 12 11 11 11
8 8 9 9 9 9 9 9 8 8 9 9 9 9 10 9 9 9 9 9 9 8 8 8 8 8 8 9 9 9 9 10 10 11 11 11 12 12 12 12 11 11 11
8 9 9 9 10 10 10 10 9 9 9 8 8 9 10 9 9 9 10 10 10 9 9 9 8 9 9 9 10 10 10 10 10 11 11 12 12 12 12 12 11 10 10
9 9 9 9 10 10 10 10 10 9 9 9 9 10 10 10 10 10 9 9 9 9 8 8 8 9 9 9 9 9 10 10 10 10 11 11 10 9 10 10 10 10 9
9 9 9 10 10 10 10 11 10 10 10 10 10 10 10 10 11 11 10 10 9 9 8 8 8 10 10 9 10 10 10 10 10 10 10 9 8 7 8 8 9 9 9
9 9 9 9 9 10 10 11 11 11 11 11 11 10 10 11 11 11 11 10 10 9 9 9 9 10 10 10 10 10 10 9 10 9 8 7 6 7 7 7 8 9 9
9 9 10 10 10 10 10 10 11 11 11 11 11 11 10 11 11 11 11 12 11 10 10 10 10 10 10 10 10 9 8 8 8 8 8 7 7 7 7 7 8 8 9
10 10 10 11 10 10 10 10 11 11 12 11 11 11 11 11 11 11 11 11 11 11 11 11 11 10 10 9 9 9 8 8 8 7 7 6 6 6 7 8 8 9 9
11 11 11 11 11 11 11 11 11 11 12 12 12 12 12 11 11 11 12 11 11 11 11 11 11 10 10 9 9 9 8 8 8 7 7 6 7 7 7 8 8 9 9
12 12 12 12 11 11 12 11 11 12 12 12 13 13 13 12 12 12 12 12 12 11 11 11 11 11 10 9 9 9 8 8 8 7 7 7 7 7 8 8 9 9 10
14 13 12 12 12 12 12 12 12 12 12 12 13 13 13 13 13 13 12 12 12 12 11 11 11 11 10 9 9 9 9 9 8 8 8 8 8 8 8 9 9 10 11
14 14 14 13 13 13 13 13 13 13 13 13 13 13 13 14 14 14 13 13 13 13 13 12 12 12 11 11 11 10 10 10 9 9 9 9 9 9 9 9 10 10 11
15 15 15 14 14 14 14 14 14 14 14 14 14 13 13 14 14 14 14 15 15 14 13 14 13 13 13 12 12 12 11 10 10 10 10 9 9 10 10 10 10 11 11
17 16 16 16 16 16 16 16 16 16 15 15 14 14 14 14 14 15 15 15 15 14 14 14 14 14 13 12 12 12 11 11 11 11 11 10 10 11 11 11 11 11 11
17 18 18 17 17 17 17 16 16 16 17 16 16 15 15 15 15 14 15 15 15 15 14 14 14 14 14 12 13 12 12 12 11 11 11 11 11 11 11 11 11 11 11
18 18 18 18 18 18 18 18 17 17 17 17 17 16 16 16 16 16 16 16 16 16 15 14 15 14 14 13 13 13 12 12 12 11 11 11 11 12 12 12 11 12 12
19 19 19 18 19 19 18 18 18 18 18 18 17 17 16 16 16 17 17 17 17 17 16 15 15 15 15 15 14 13 13 13 12 11 12 12 12 12 12 12 12 13 13
20 20 20 20 20 20 19 18 19 19 18 18 18 18 17 16 16 16 17 17 17 17 17 16 16 16 17 16 15 14 14 13 12 13 13 13 13 13 13 13 13 13 13
21 21 21 20 20 21 21 20 20 19 19 19 19 19 19 18 17 17 17 18 18 18 18 17 17 17 18 18 17 16 15 14 14 14 14 14 14 14 13 14 14 14 14
22 22 21 21 21 21 21 21 20 19 19 19 19 20 20 20 19 19 19 19 19 19 19 19 18 19 19 19 18 17 16 16 15 16 15 15 15 14 15 16 15 15 15
23 24 24 23 22 22 22 22 21 20 20 20 20 21 21 21 21 21 20 20 20 20 19 18 19 19 19 19 19 19 18 17 16 16 16 16 15 15 15 15 15 15 16
24 24 24 24 24 24 23 23 22 22 22 21 21 22 22 22 22 22 21 21 21 21 21 20 20 19 20 20 19 19 19 18 17 17 18 17 17 17 17 17 17 17 17
25 25 25 25 25 25 25 24 24 23 23 22 22 22 23 22 23 23 22 22 21 22 22 22 21 21 20 21 21 20 20 20 19 19 20 19 19 19 19 19 19 19 19
26 26 26 26 26 26 26 26 25 25 24 23 23 23 23 24 24 24 23 23 23 23 23 23 23 22 22 21 22 22 21 21 21 20 20 20 20 20 20 20 21 21 21
Wind_Direction
285 282 282 286 288 288 277 274 274 275 276 274 270 264 262 262 267 266 265 268 275 278 281 279 278 269 260 261 265 272 275 274 277 279 279 275 272 269 266 262 259 257 259
283 282 279 284 286 289 285 281 274 272 272 269 264 260 258 260 260 262 264 269 271 274 279 278 276 277 265 261 265 272 275 276 278 277 279 274 271 269 260 256 257 257 258
279 279 281 281 282 284 287 285 278 269 271 270 265 259 259 260 260 259 264 269 268 272 274 276 274 268 269 267 269 273 276 278 279 282 281 276 271 269 261 254 255 257 258
281 281 281 281 280 280 283 283 277 271 268 268 268 265 260 259 264 260 263 266 268 271 269 271 273 270 270 270 272 274 277 277 277 281 281 278 272 267 260 255 254 256 256
282 284 285 284 284 282 284 280 276 271 270 267 264 266 263 261 263 263 264 264 266 269 265 265 269 269 269 269 270 270 274 279 281 283 285 284 278 268 258 256 250 250 252
285 287 286 287 289 288 284 282 277 273 272 269 265 262 261 262 265 265 264 265 264 265 263 263 268 268 267 268 269 271 274 277 283 285 285 286 280 268 253 250 247 245 249
287 289 287 286 290 289 284 279 276 271 269 266 264 262 260 261 263 263 263 265 263 261 261 264 266 266 265 267 269 275 278 280 284 285 284 282 277 269 254 247 246 246 250
289 288 285 284 287 289 283 275 272 269 266 263 261 260 261 260 260 260 261 263 265 264 263 264 265 268 269 267 269 275 278 277 280 285 290 285 275 264 253 248 247 250 253
285 284 283 286 288 287 282 275 269 267 266 263 258 258 258 260 261 258 260 263 265 265 264 264 264 267 270 272 271 271 275 276 277 280 282 283 276 261 253 249 251 253 257
283 285 284 287 288 287 282 278 270 268 266 264 259 259 259 260 259 258 259 262 264 265 265 264 262 262 265 267 270 269 271 272 275 277 280 283 277 270 259 254 255 256 256
281 285 288 286 286 287 284 278 272 270 266 263 259 260 261 262 261 259 256 258 261 263 263 261 261 260 263 266 265 265 267 270 271 276 279 280 276 270 264 260 258 254 256
279 281 283 284 283 286 283 276 272 270 268 264 262 261 260 260 259 257 257 256 256 259 263 262 260 257 260 263 260 259 264 267 270 273 277 279 273 270 266 262 260 258 260
277 279 281 281 281 283 280 274 272 269 268 267 263 261 262 259 257 256 256 255 252 254 258 260 260 259 260 263 259 258 261 265 268 270 274 277 274 272 270 267 265 262 263
274 278 281 279 278 278 279 275 272 269 268 266 263 262 261 259 258 258 257 254 253 252 253 256 257 260 260 260 259 260 263 264 266 271 273 274 273 272 272 271 269 267 266
272 275 278 279 280 279 277 276 272 269 267 266 263 262 260 259 259 258 257 255 253 252 254 255 253 257 260 260 260 260 262 263 267 272 273 274 272 271 273 273 272 269 269
274 274 275 276 279 277 275 275 272 269 268 266 263 260 258 258 259 259 256 255 254 252 254 256 254 254 256 258 260 260 262 263 267 274 274 271 272 273 273 274 274 272 273
273 273 276 275 275 276 275 273 272 270 268 268 264 260 258 257 258 258 256 256 256 253 253 256 257 255 255 255 257 260 262 264 268 272 271 270 273 274 274 276 275 274 276
274 276 275 274 273 272 271 271 271 271 269 268 265 263 259 256 258 257 257 257 254 251 252 253 253 252 252 254 256 256 260 264 269 269 273 275 275 276 278 277 276 275 277
276 277 277 276 274 272 272 271 271 272 271 266 263 263 260 256 255 254 254 255 254 251 251 251 251 250 251 253 255 256 259 265 265 267 273 277 277 276 278 277 277 276 276
278 278 276 274 274 272 272 271 270 271 270 266 262 258 257 257 255 254 253 253 252 251 250 250 250 249 251 252 254 257 259 262 264 265 270 275 278 278 277 277 277 277 278
277 277 277 274 272 271 270 270 270 270 267 264 259 254 252 252 254 254 254 255 253 251 251 252 252 250 252 254 256 257 256 261 265 266 267 273 275 276 276 277 276 275 277
275 274 274 273 271 270 269 269 268 266 264 263 258 253 251 252 253 253 254 255 254 251 251 253 253 253 252 255 256 256 257 261 265 267 267 270 273 274 274 275 276 275 275
271 271 272 271 271 270 268 267 266 263 262 261 257 254 252 252 252 253 256 257 255 253 253 254 254 252 252 253 255 255 256 259 262 265 266 267 270 272 273 275 275 276 277
270 270 271 271 270 269 267 264 262 261 259 258 258 256 254 252 250 252 254 255 256 254 253 254 253 254 253 253 255 257 258 260 262 264 266 268 269 269 270 272 274 276 278
269 270 270 270 269 269 266 263 261 260 260 258 257 256 255 253 252 252 253 253 254 255 254 252 252 253 254 254 255 257 259 262 264 265 266 267 269 269 270 271 273 276 278
268 269 268 268 268 268 266 263 261 260 258 257 256 257 256 254 253 252 252 252 253 254 253 252 251 252 253 256 257 258 260 261 263 265 265 267 267 268 269 272 272 274 276
Height
5881 5880 5880 5879 5879 5879 5878 5878 5878 5877 5877 5877 5877 5877 5877 5877 5877 5877 5877 5876 5876 5876 5875 5875 5874 5873 5873 5873 5872 5872 5871 5871 5870 5870 5869 5869 5868 5868 5867 5867 5868 5868 5868
5879 5878 5878 5877 5877 5877 5876 5876 5876 5876 5876 5875 5875 5875 5875 5875 5875 5875 5875 5874 5874 5874 5873 5873 5872 5872 5871 5871 5870 5870 5869 5869 5868 5867 5867 5866 5866 5865 5865 5865 5865 5865 5866
5877 5876 5876 5876 5875 5875 5874 5874 5874 5874 5874 5873 5873 5873 5873 5873 5873 5873 5872 5872 5872 5872 5871 5871 5870 5870 5869 5869 5868 5868 5867 5867 5866 5865 5864 5863 5863 5862 5862 5862 5862 5863 5863
5874 5874 5874 5873 5873 5873 5872 5872 5872 5871 5872 5871 5871 5871 5871 5871 5871 5871 5871 5870 5870 5869 5869 5869 5868 5868 5868 5867 5866 5866 5865 5864 5863 5862 5861 5860 5859 5858 5858 5858 5859 5860 5861
5872 5871 5871 5871 5870 5870 5870 5870 5869 5869 5869 5869 5869 5868 5868 5868 5869 5869 5868 5868 5868 5867 5867 5867 5867 5866 5866 5865 5864 5864 5863 5862 5861 5860 5858 5856 5854 5853 5853 5854 5856 5857 5858
5870 5869 5868 5868 5867 5867 5867 5867 5867 5867 5867 5867 5867 5866 5866 5866 5866 5866 5866 5866 5865 5865 5865 5865 5864 5864 5864 5863 5863 5862 5861 5860 5858 5857 5855 5853 5851 5849 5850 5852 5853 5855 5856
5867 5866 5866 5865 5865 5864 5864 5864 5864 5864 5864 5864 5864 5864 5864 5864 5864 5864 5864 5863 5863 5863 5863 5863 5862 5862 5862 5861 5860 5859 5858 5857 5856 5855 5854 5852 5850 5849 5848 5850 5851 5853 5854
5865 5864 5863 5862 5862 5862 5861 5861 5861 5861 5861 5861 5862 5861 5861 5862 5861 5861 5861 5861 5861 5861 5860 5860 5860 5860 5859 5858 5858 5857 5856 5855 5855 5854 5852 5851 5849 5849 5848 5849 5850 5851 5851
5862 5861 5860 5860 5859 5859 5858 5858 5858 5858 5858 5858 5859 5859 5859 5859 5859 5859 5859 5858 5858 5858 5858 5858 5858 5857 5857 5856 5855 5855 5854 5853 5853 5852 5851 5849 5849 5848 5848 5848 5849 5849 5849
5859 5858 5857 5857 5856 5856 5855 5855 5854 5854 5855 5855 5855 5856 5856 5856 5856 5856 5856 5856 5856 5856 5856 5855 5855 5855 5854 5854 5853 5853 5852 5852 5851 5850 5849 5848 5847 5847 5847 5847 5847 5847 5847
5856 5855 5854 5854 5853 5852 5852 5852 5851 5851 5851 5851 5852 5852 5853 5853 5853 5853 5853 5854 5853 5853 5853 5853 5853 5852 5852 5852 5851 5851 5850 5850 5849 5848 5848 5847 5846 5845 5845 5845 5845 5845 5845
5852 5852 5851 5850 5850 5849 5849 5848 5848 5848 5848 5848 5848 5849 5849 5850 5850 5850 5850 5851 5851 5851 5850 5850 5850 5850 5850 5849 5849 5849 5848 5848 5847 5847 5846 5845 5844 5843 5843 5843 5842 5842 5842
5849 5848 5848 5847 5846 5846 5845 5845 5845 5845 5845 5845 5845 5845 5845 5846 5846 5847 5847 5847 5848 5848 5848 5848 5847 5847 5847 5847 5846 5846 5846 5846 5845 5844 5844 5843 5842 5841 5841 5840 5840 5840 5840
5845 5844 5843 5843 5842 5842 5842 5841 5841 5841 5841 5841 5841 5841 5841 5842 5842 5843 5843 5844 5844 5845 5845 5845 5844 5844 5844 5844 5844 5844 5843 5843 5843 5842 5841 5841 5840 5839 5838 5838 5837 5837 5837
5841 5840 5839 5838 5838 5838 5838 5838 5837 5837 5837 5837 5837 5837 5837 5838 5838 5838 5839 5840 5840 5841 5841 5841 5841 5841 5841 5841 5841 5841 5840 5840 5840 5839 5839 5838 5837 5836 5836 5835 5835 5834 5834
5836 5835 5835 5834 5834 5833 5833 5833 5833 5833 5833 5833 5833 5833 5833 5833 5834 5834 5834 5835 5836 5837 5837 5837 5837 5838 5838 5838 5838 5838 5838 5837 5837 5836 5836 5835 5834 5834 5833 5832 5832 5831 5830
5831 5830 5830 5829 5829 5829 5828 5828 5828 5828 5828 5828 5828 5828 5829 5829 5829 5830 5830 5831 5832 5832 5833 5834 5834 5834 5834 5835 5835 5835 5834 5834 5834 5833 5832 5832 5831 5831 5830 5829 5829 5828 5827
5825 5825 5824 5824 5823 5823 5823 5823 5823 5823 5823 5823 5824 5824 5824 5824 5825 5825 5826 5827 5827 5828 5829 5830 5830 5830 5831 5831 5831 5831 5831 5831 5830 5830 5829 5828 5828 5827 5827 5826 5825 5825 5824
5819 5819 5818 5818 5818 5818 5818 5818 5818 5818 5818 5818 5818 5819 5819 5820 5820 5821 5821 5822 5823 5824 5825 5826 5826 5826 5827 5827 5827 5827 5827 5827 5826 5826 5826 5825 5825 5824 5823 5822 5822 5821 5820
5814 5813 5812 5812 5812 5812 5812 5812 5812 5812 5812 5812 5812 5813 5814 5815 5816 5816 5817 5817 5818 5819 5820 5821 5822 5822 5823 5823 5823 5823 5823 5823 5823 5823 5822 5822 5821 5820 5820 5819 5818 5817 5817
5807 5807 5806 5806 5806 5806 5806 5806 5806 5806 5806 5806 5806 5807 5808 5809 5810 5811 5812 5813 5813 5814 5815 5816 5817 5818 5818 5818 5819 5819 5819 5819 5819 5818 5818 5818 5817 5816 5816 5815 5814 5813 5812
5801 5800 5800 5800 5800 5799 5799 5799 5799 5800 5800 5800 5801 5802 5803 5804 5805 5806 5806 5807 5808 5808 5809 5810 5811 5812 5813 5813 5814 5814 5815 5815 5815 5815 5814 5813 5813 5812 5812 5811 5809 5809 5808
5794 5793 5793 5793 5793 5793 5792 5792 5793 5793 5794 5794 5795 5796 5797 5798 5799 5800 5800 5801 5802 5803 5804 5805 5806 5806 5807 5808 5808 5809 5809 5810 5810 5809 5809 5809 5808 5808 5807 5806 5805 5804 5803
5786 5786 5786 5786 5786 5786 5785 5785 5786 5786 5787 5788 5789 5790 5791 5791 5792 5793 5794 5795 5796 5797 5798 5799 5800 5801 5802 5802 5803 5803 5803 5804 5804 5804 5804 5804 5803 5803 5802 5801 5800 5800 5799
5778 5778 5778 5778 5778 5778 5778 5778 5778 5779 5780 5781 5782 5783 5784 5785 5786 5787 5788 5789 5789 5790 5791 5792 5794 5795 5796 5796 5797 5797 5798 5798 5798 5798 5798 5798 5798 5797 5797 5796 5795 5794 5793
5770 5770 5770 5770 5770 5770 5770 5770 5770 5771 5772 5773 5774 5775 5776 5777 5778 5779 5781 5782 5783 5784 5785 5786 5787 5788 5789 5790 5791 5791 5791 5792 5792 5792 5791 5791 5791 5791 5791 5790 5789 5789 5788